Location: Elkol
(41.7238°N, 110.6124°W)
Time: 00:49:07
(UTC+00:00)

BlueWalker 3 - Pass Details

Date: 12 December 2022
Orbit: 499 x 517 km, 53.2° (Epoch: 05 February)

Event Time Altitude Azimuth Distance (km) Brightness Sun altitude
Rises 00:28:35 0° 310° (NW) 2,629 6.0 -6.9°
Reaches altitude 10° 00:30:51 10° 315° (NW) 1,736 4.9 -7.3°
Maximum altitude 00:34:41 52° 33° (NNE) 641 2.1 -7.9°
Drops below altitude 10° 00:38:29 10° 110° (ESE) 1,716 4.2 -8.6°
Enters shadow 00:40:16 - 115° (ESE) 2,418 5.0 -8.9°
